GFSWCAN_sfc_temp_021.txt.gz
Temp
48 49 51 50 51 51 52 51 51 52 52 52 52 52 51 51 52 43 39 40 37 29 33 35 36 32 31 32 27 26 29 28 26 25 23 23 18 21 18 22 19 17 12 12 11 3 7 26 26 22 26 25 26 26
48 48 49 50 50 51 51 51 52 51 51 51 51 51 51 51 51 48 38 40 40 32 32 35 37 39 39 38 30 25 29 25 29 22 17 19 14 14 13 12 23 19 24 17 20 18 28 28 29 32 30 27 28 29
47 47 48 49 48 50 50 50 51 51 50 51 51 51 52 51 51 48 40 37 37 31 29 30 31 39 40 40 40 29 26 31 30 30 20 17 13 21 10 12 15 21 24 20 20 24 26 29 31 31 31 31 32 31
46 46 47 48 48 49 50 50 50 50 50 50 50 51 51 50 51 49 40 41 38 33 23 27 33 33 40 40 38 38 34 32 31 30 22 15 12 26 16 21 20 24 24 18 18 26 26 29 30 32 32 31 30 30
45 46 47 47 48 48 50 49 49 50 50 50 50 50 50 50 50 48 43 42 42 33 23 21 27 33 36 37 36 35 34 31 28 22 16 15 21 21 17 23 17 26 26 21 19 30 30 32 32 34 32 32 30 28
45 45 46 45 45 47 48 48 49 48 48 48 48 49 49 49 49 43 33 41 44 40 31 20 29 26 31 33 33 32 32 29 28 25 22 23 29 26 11 9 31 34 31 33 29 33 33 35 34 32 31 30 30 27
45 45 45 44 44 47 48 48 48 48 46 47 48 47 48 47 43 34 32 38 45 42 31 25 17 26 29 28 25 28 30 29 27 25 21 25 25 29 21 12 33 31 31 30 32 31 28 29 30 30 29 29 26 24
44 45 45 43 43 46 47 48 48 48 48 48 47 47 46 45 43 36 39 44 44 35 32 25 15 22 30 23 25 28 26 28 28 28 26 21 27 27 18 27 31 32 30 29 30 31 35 32 27 28 24 20 19 21
43 44 45 43 43 47 47 47 47 47 47 47 47 47 40 37 33 34 44 44 40 33 27 24 15 11 28 29 30 28 30 23 29 25 24 28 22 19 25 29 29 31 30 32 34 24 25 24 28 23 20 14 19 22
43 44 45 45 43 45 46 47 46 46 46 46 38 32 29 33 42 42 36 32 31 30 30 24 15 9 27 23 19 24 27 24 20 24 27 23 23 30 32 27 30 32 32 32 19 18 8 15 22 21 19 22 22 19
40 44 44 44 41 44 46 46 45 44 43 33 30 28 32 41 34 29 24 24 25 22 27 14 14 15 22 14 16 26 19 22 17 18 19 18 14 29 33 29 34 31 31 28 30 31 22 22 22 20 17 14 11 9
38 42 42 41 42 45 45 45 44 36 34 35 34 35 34 31 27 23 22 17 19 14 12 21 18 19 15 20 16 21 17 19 15 19 17 14 20 30 23 27 32 32 31 22 20 24 14 14 9 10 8 6 2 1
37 40 40 39 40 43 44 45 42 41 38 33 29 25 26 25 19 16 13 14 9 3 13 17 13 19 18 23 20 18 11 11 12 15 14 13 27 19 15 15 15 4 6 9 5 6 5 2 -0 -1 -2 -3 -4 -7
41 39 40 40 42 44 45 45 43 39 31 23 22 17 18 15 18 13 10 10 14 11 14 13 18 16 16 19 22 16 18 15 11 8 6 22 8 -1 1 -1 -1 -1 -1 2 -1 -0 -2 -3 -6 -7 -6 -7 -7 -9
41 41 41 41 42 42 43 44 44 36 27 22 22 15 15 10 0 -6 -8 2 7 9 19 16 16 24 17 20 22 18 12 11 12 9 8 1 -3 -5 -4 -7 -9 -7 -6 -8 -10 -7 -6 -6 -8 -12 -14 -13 -13 -14
39 37 35 39 38 40 40 37 34 32 28 23 20 14 0 4 2 1 -1 6 11 19 16 19 15 17 17 18 16 14 11 8 8 2 -4 -3 -8 -9 -10 -10 -9 -8 -9 -10 -10 -9 -6 -9 -8 -13 -19 -20 -20 -16
34 18 37 38 36 34 34 25 27 23 17 18 12 -12 -4 1 8 5 6 12 17 19 13 15 14 14 17 11 10 5 4 -0 -4 -4 -5 -6 -7 -9 -6 -10 -13 -12 -12 -8 -9 -10 -13 -13 -13 -12 -13 -19 -23 -22
17 24 36 36 27 22 10 13 19 18 11 8 11 -1 -8 -10 -6 -3 2 9 12 14 14 14 18 15 13 12 12 2 1 -1 -4 -4 -5 -6 -7 -11 -13 -14 -15 -14 -10 -11 -10 -14 -14 -13 -12 -16 -19 -23 -20 -19
24 25 33 33 24 7 6 7 8 7 -1 -3 4 3 3 0 2 2 4 9 11 12 14 15 13 8 -1 -5 -8 -4 -4 -4 -3 -3 -5 -7 -7 -8 -9 -10 -12 -14 -15 -21 -19 -16 -18 -18 -16 -16 -16 -15 -15 -21
32 31 29 29 25 6 -1 2 2 1 -6 -2 -2 -2 2 3 2 1 3 5 10 6 -2 -3 -10 -11 -10 -9 -9 -10 -8 -6 -5 -3 -3 -5 -7 -9 -12 -12 -12 -15 -15 -16 -15 -15 -17 -18 -19 -19 -19 -14 -12 -11
23 24 24 14 11 6 -1 -2 -5 -6 -6 -9 -9 -0 -0 2 -1 -1 -1 1 -4 -14 -12 -17 -16 -12 -10 -9 -9 -12 -9 -10 -9 -9 -9 -7 -9 -11 -14 -15 -16 -16 -18 -22 -20 -19 -16 -16 -17 -20 -19 -17 -17 -16
17 22 5 13 8 3 1 1 -4 -4 -5 -9 -5 -5 -8 -7 -5 -6 -1 -9 -13 -16 -18 -16 -16 -16 -16 -14 -13 -12 -12 -11 -7 -7 -7 -7 -10 -11 -14 -18 -16 -18 -16 -17 -17 -18 -19 -21 -21 -22 -22 -22 -22 -23
15 14 7 5 1 -2 -5 0 -3 -2 -4 -4 -3 -2 -7 -8 -7 -1 -12 -14 -15 -13 -17 -18 -16 -16 -16 -15 -13 -11 -11 -11 -10 -11 -10 -11 -11 -12 -12 -14 -15 -17 -19 -19 -25 -25 -23 -19 -21 -21 -23 -22 -22 -21
8 -4 -4 -7 -5 -9 -4 -3 1 -1 -4 -7 -5 -7 -12 -11 -7 -8 -16 -16 -15 -12 -14 -16 -15 -13 -10 -11 -12 -13 -14 -14 -11 -12 -16 -11 -13 -17 -21 -23 -26 -28 -26 -28 -26 -26 -25 -24 -19 -20 -20 -19 -16 -12
-4 -15 -11 -15 -10 -10 -10 -10 -9 -6 -10 -9 -9 -9 -12 -10 -9 -15 -15 -15 -14 -14 -15 -18 -19 -17 -19 -17 -12 -12 -16 -15 -12 -12 -17 -25 -26 -25 -23 -26 -26 -26 -29 -24 -24 -25 -24 -25 -20 -16 -10 -9 -9 -10
-21 -19 -18 -21 -17 -15 -15 -13 -13 -14 -11 -11 -15 -13 -13 -10 -16 -21 -20 -18 -17 -17 -17 -18 -23 -21 -15 -15 -15 -12 -14 -21 -22 -16 -19 -29 -26 -24 -26 -22 -21 -16 -25 -25 -24 -24 -21 -11 -10 -9 -8 -8 -6 -8
-22 -22 -19 -12 -15 -16 -13 -11 -12 -14 -19 -20 -21 -14 -12 -20 -22 -21 -17 -14 -15 -14 -13 -14 -17 -18 -17 -15 -13 -14 -14 -19 -16 -14 -19 -25 -25 -26 -21 -20 -18 -15 -19 -19 -19 -17 -14 -12 -10 -8 -7 -7 -8 -9
-22 -23 -24 -20 -18 -19 -20 -20 -23 -25 -23 -23 -19 -21 -22 -23 -24 -16 -12 -10 -11 -12 -11 -11 -14 -14 -15 -12 -11 -10 -9 -9 -15 -17 -16 -14 -14 -12 -13 -11 -12 -2 -8 -10 -10 -9 -11 -11 -10 -10 -9 -9 -8 -8
-22 -22 -22 -18 -19 -22 -27 -26 -26 -26 -26 -27 -20 -19 -19 -14 -15 -15 -13 -11 -11 -11 -11 -10 -9 -8 -10 -9 -7 -8 -7 -8 -9 -12 -12 -12 -9 -8 -6 -7 -8 -10 -12 -16 -9 -3 -6 -9 -10 -11 -11 -11 -9 -9
-23 -23 -19 -20 -23 -26 -27 -29 -27 -26 -24 -24 -23 -14 -14 -13 -11 -9 -10 -10 -10 -11 -11 -9 -9 -9 -11 -11 -11 -9 -11 -9 -9 -12 -15 -14 -12 -8 -8 -8 -8 -8 -9 -13 -12 -11 -6 -8 -8 -13 -11 -13 -14 -11
-22 -24 -21 -20 -23 -24 -26 -28 -27 -25 -24 -21 -19 -17 -18 -16 -11 -6 -7 -8 -8 -9 -9 -10 -10 -11 -12 -12 -13 -14 -13 -11 -11 -11 -10 -10 -9 -9 -9 -8 -8 -10 -13 -16 -17 -19 -16 -16 -18 -17 -18 -18 -17 -14
-22 -30 -26 -24 -24 -24 -27 -25 -26 -23 -22 -19 -20 -19 -18 -17 -17 -11 -8 -8 -9 -11 -10 -11 -13 -13 -12 -14 -13 -13 -9 -10 -11 -9 -11 -8 -8 -7 -7 -6 -10 -17 -15 -13 -15 -17 -18 -21 -22 -23 -21 -21 -21 -20
-24 -23 -22 -21 -22 -22 -22 -23 -20 -20 -19 -21 -19 -20 -22 -17 -18 -12 -9 -6 -9 -11 -12 -12 -11 -10 -11 -12 -13 -11 -12 -14 -13 -5 -5 -5 -6 -5 -6 -12 -13 -15 -18 -21 -20 -21 -21 -23 -22 -23 -23 -23 -22 -22

GFSWCAN_sfc_temp_024.txt.gz
Temp
47 48 48 48 49 51 51 51 52 51 52 51 51 51 51 51 50 43 38 41 37 30 33 34 37 32 31 34 29 27 29 28 27 26 27 24 23 23 22 24 21 20 19 14 16 17 17 27 27 25 28 26 27 27
47 48 48 49 48 49 51 50 51 51 51 51 52 51 51 51 51 46 36 40 41 33 32 36 38 38 39 39 32 28 31 27 31 27 24 22 18 18 17 16 24 21 24 19 23 22 27 30 29 32 31 27 27 29
47 47 48 48 48 48 49 50 50 50 51 51 51 52 52 51 51 47 38 37 35 27 30 30 31 38 39 40 41 30 28 33 31 32 24 22 20 22 13 15 17 22 25 21 22 24 26 29 31 30 31 32 32 31
46 46 46 47 47 48 48 48 49 50 50 51 51 50 51 51 51 46 39 40 36 30 21 28 34 33 39 40 38 38 34 33 32 31 25 21 18 27 19 23 22 25 24 18 19 26 27 30 30 32 31 31 30 30
45 45 45 46 47 47 48 48 47 49 49 50 50 50 50 51 50 47 42 42 41 34 24 23 28 33 35 37 36 35 34 31 29 24 20 18 23 22 20 23 18 26 24 22 19 30 31 32 35 34 31 31 30 29
45 45 45 45 46 46 47 48 48 48 48 49 49 49 49 50 50 42 34 41 43 41 30 22 29 26 30 33 32 32 32 30 28 26 23 25 29 26 14 13 30 29 31 33 30 32 32 34 34 32 31 30 30 27
45 45 44 45 45 46 46 46 48 48 48 48 48 49 49 49 44 35 32 36 45 41 31 24 19 25 29 28 25 28 30 29 27 24 21 26 26 27 15 14 35 32 31 31 33 31 29 30 32 31 30 30 26 23
42 42 44 44 45 46 46 45 47 47 48 47 47 48 47 48 42 35 39 44 44 34 32 25 19 23 30 25 24 27 25 25 24 26 23 21 26 24 14 28 33 32 31 29 30 31 35 31 27 28 23 21 19 22
40 40 43 44 45 46 45 45 46 47 47 47 45 46 40 34 32 34 42 42 38 34 27 26 18 13 28 28 27 26 28 22 28 23 23 26 21 19 25 28 29 29 29 30 26 25 25 24 28 23 20 15 20 22
41 41 42 44 45 45 43 45 47 47 47 47 40 32 28 33 42 43 37 32 30 30 30 22 12 10 28 23 22 20 22 20 19 23 27 23 20 29 33 26 29 30 28 27 19 18 9 14 22 24 20 23 24 24
40 40 40 44 45 43 41 44 46 47 46 33 30 27 33 42 31 27 26 24 26 23 28 22 17 16 21 15 18 26 21 23 17 16 18 12 9 29 34 27 32 30 30 26 29 30 22 22 21 21 19 19 16 11
38 39 42 44 45 42 39 45 46 36 33 34 33 35 34 29 22 20 19 21 16 16 13 18 18 16 15 19 18 23 20 20 12 13 14 8 19 26 20 26 30 27 22 20 18 23 16 17 11 11 8 6 3 3
38 39 39 41 44 44 42 45 42 40 38 33 29 27 25 25 18 17 14 9 10 1 9 16 14 18 18 22 17 16 16 14 15 16 12 13 20 11 5 6 9 6 5 6 4 5 6 2 1 -1 -1 -2 -3 -4
39 39 39 38 40 43 44 42 41 39 31 24 22 17 18 16 14 16 14 6 11 8 16 12 18 16 12 15 20 11 13 10 5 2 5 10 -0 -2 -0 -1 -5 1 -4 1 -2 -0 -1 -2 -6 -6 -6 -5 -6 -7
41 40 39 39 40 39 39 40 40 33 25 19 18 12 11 6 -3 -8 -9 -0 4 5 15 13 12 22 14 17 19 14 10 7 6 5 1 -4 -5 -6 -5 -7 -8 -7 -7 -9 -11 -7 -6 -7 -8 -12 -14 -11 -9 -9
39 36 36 39 40 40 40 36 34 31 24 19 13 7 -0 3 -0 -2 -4 5 12 16 14 16 12 14 13 16 15 14 12 9 6 -9 -10 -6 -10 -9 -11 -12 -12 -13 -15 -14 -11 -11 -8 -8 -9 -14 -16 -13 -11 -11
34 21 37 37 36 34 34 27 28 20 17 17 2 -14 -9 -4 2 0 3 11 18 20 15 19 16 16 17 11 9 8 6 -3 -7 -6 -4 -6 -9 -11 -11 -14 -12 -13 -13 -17 -17 -14 -17 -15 -13 -12 -10 -13 -12 -13
21 24 36 36 25 23 11 12 18 17 10 7 9 -3 -8 -7 -7 -4 2 11 16 16 17 17 20 14 13 10 2 -3 -1 -1 -0 -2 -4 -7 -8 -8 -8 -9 -11 -12 -13 -12 -12 -13 -10 -8 -9 -12 -13 -16 -15 -19
25 29 34 32 23 6 6 4 7 5 -3 -2 4 6 5 2 1 3 3 9 12 10 12 10 13 3 -6 -8 -13 -9 -11 -9 -8 -6 -6 -7 -6 -7 -7 -8 -8 -11 -12 -20 -21 -21 -23 -20 -19 -21 -21 -20 -19 -22
32 30 29 27 20 4 -1 -2 -2 1 -6 -3 -2 1 3 4 4 5 3 5 5 2 -8 -8 -13 -15 -12 -11 -10 -11 -9 -7 -9 -8 -4 -5 -7 -8 -11 -9 -11 -13 -13 -18 -17 -17 -21 -19 -20 -23 -23 -20 -20 -20
22 21 23 13 6 0 -3 -4 -6 -7 -9 -5 -6 -1 -1 2 -1 -2 -3 -0 -7 -14 -13 -14 -14 -13 -12 -11 -9 -11 -10 -10 -10 -11 -11 -7 -7 -9 -11 -11 -11 -11 -12 -14 -15 -15 -16 -19 -20 -23 -23 -23 -26 -24
16 22 5 11 7 1 -2 -1 -5 -5 -7 -11 -9 -8 -9 -9 -9 -8 -2 -11 -14 -15 -15 -15 -15 -15 -15 -14 -13 -14 -14 -13 -10 -7 -6 -7 -8 -8 -9 -10 -8 -10 -10 -12 -14 -19 -21 -22 -23 -26 -25 -25 -24 -24
15 14 6 3 -0 -3 -7 2 -5 -4 -7 -8 -6 -4 -9 -10 -7 -1 -13 -13 -14 -11 -13 -15 -15 -14 -17 -17 -18 -15 -15 -15 -14 -14 -11 -10 -10 -9 -9 -10 -10 -10 -12 -17 -22 -22 -20 -17 -21 -23 -24 -23 -24 -23
7 -4 -6 -8 -6 -10 -5 -6 -1 -4 -5 -5 -4 -10 -14 -11 -4 -10 -18 -17 -13 -11 -13 -15 -16 -14 -15 -14 -15 -16 -15 -14 -11 -13 -14 -9 -9 -12 -14 -13 -15 -18 -20 -22 -21 -24 -25 -25 -20 -22 -22 -24 -24 -21
-6 -16 -13 -17 -11 -11 -12 -11 -10 -6 -10 -10 -10 -12 -13 -12 -14 -18 -18 -18 -15 -14 -14 -15 -15 -14 -16 -15 -13 -15 -16 -17 -12 -11 -13 -14 -12 -12 -11 -15 -18 -22 -24 -22 -22 -26 -26 -28 -25 -23 -20 -21 -20 -18
-22 -19 -20 -21 -18 -17 -16 -14 -14 -16 -13 -16 -17 -13 -11 -13 -18 -23 -21 -18 -17 -15 -15 -17 -18 -17 -13 -15 -17 -14 -14 -16 -16 -11 -13 -16 -16 -17 -20 -17 -21 -17 -27 -28 -27 -26 -25 -23 -22 -20 -19 -16 -10 -12
-24 -24 -19 -12 -15 -15 -14 -13 -14 -17 -21 -22 -22 -15 -14 -20 -24 -23 -18 -14 -15 -14 -12 -12 -15 -16 -16 -15 -12 -10 -10 -13 -13 -13 -14 -15 -15 -17 -16 -18 -18 -15 -22 -25 -27 -27 -24 -24 -20 -18 -16 -14 -12 -10
-21 -23 -25 -20 -19 -19 -20 -21 -25 -27 -25 -24 -20 -22 -23 -24 -26 -19 -13 -10 -11 -11 -10 -9 -12 -13 -13 -11 -9 -7 -7 -6 -11 -11 -10 -10 -12 -12 -14 -13 -13 -2 -14 -17 -15 -15 -19 -20 -21 -19 -17 -13 -11 -12
-21 -21 -21 -20 -20 -24 -28 -27 -28 -25 -25 -27 -21 -20 -21 -16 -17 -17 -12 -10 -9 -9 -10 -10 -9 -7 -8 -7 -7 -8 -8 -8 -11 -14 -15 -16 -16 -14 -9 -12 -13 -13 -16 -20 -8 -2 -3 -7 -8 -9 -11 -11 -11 -14
-22 -22 -20 -22 -25 -27 -27 -29 -26 -25 -24 -23 -21 -13 -13 -13 -9 -7 -8 -9 -10 -11 -11 -10 -10 -11 -12 -13 -12 -11 -11 -14 -12 -14 -19 -19 -17 -11 -11 -12 -13 -13 -16 -22 -15 -15 -10 -14 -12 -15 -13 -13 -15 -15
-21 -23 -22 -22 -24 -25 -25 -26 -26 -24 -21 -17 -16 -17 -20 -17 -11 -8 -9 -9 -9 -10 -11 -13 -12 -12 -14 -14 -15 -15 -15 -15 -12 -14 -16 -15 -14 -14 -12 -11 -9 -10 -17 -18 -20 -23 -22 -22 -25 -26 -25 -25 -22 -19
-22 -27 -23 -22 -24 -23 -23 -23 -23 -20 -19 -18 -19 -18 -19 -18 -19 -15 -10 -10 -13 -15 -14 -15 -16 -16 -13 -13 -19 -22 -14 -16 -16 -16 -16 -13 -12 -11 -10 -8 -10 -16 -17 -15 -17 -20 -23 -25 -24 -24 -23 -24 -24 -24
-24 -21 -22 -23 -23 -23 -23 -23 -20 -20 -19 -21 -21 -21 -21 -18 -20 -14 -10 -9 -14 -17 -18 -17 -15 -13 -15 -20 -19 -23 -22 -23 -20 -11 -10 -8 -8 -8 -9 -10 -17 -20 -20 -20 -21 -22 -23 -24 -23 -24 -25 -25 -25 -25

GFSWCAN_sfc_temp_030.txt.gz
Temp
47 47 47 47 47 47 48 49 50 49 50 51 50 52 51 50 49 45 40 43 40 34 34 34 36 34 33 34 31 30 32 31 31 31 30 29 27 27 26 27 28 29 27 27 28 26 25 34 34 34 37 33 35 35
47 47 47 47 47 47 48 49 49 49 49 50 51 51 52 50 50 46 38 42 42 35 34 37 39 39 39 41 34 31 32 31 34 31 31 28 25 25 26 24 28 27 32 29 31 31 32 37 36 38 37 35 34 38
45 45 45 45 46 46 47 48 49 49 48 49 50 51 51 51 50 46 39 39 37 32 32 33 34 39 41 41 42 34 32 34 33 33 31 28 26 27 25 26 25 30 32 31 31 31 32 35 34 36 37 38 38 39
44 44 45 46 46 46 46 47 48 48 49 48 50 50 51 50 50 43 39 40 38 32 28 31 36 36 40 42 41 40 36 33 32 33 30 29 28 29 27 29 29 32 31 26 27 30 32 35 34 37 37 38 37 36
43 44 45 45 46 45 46 47 47 48 48 48 48 49 50 50 50 45 41 42 43 38 29 29 31 35 36 39 38 38 37 32 31 29 28 27 28 29 26 28 28 31 29 29 29 35 36 37 39 38 36 36 36 35
43 44 45 44 45 46 46 45 46 47 47 47 47 46 49 49 50 42 33 40 43 42 32 27 30 29 33 36 35 35 35 35 34 31 27 29 32 31 26 25 32 34 35 38 36 37 37 38 39 37 37 37 34 33
43 44 43 43 43 44 44 45 45 46 46 47 48 46 48 49 44 36 34 40 46 42 32 26 24 29 32 31 31 32 33 33 34 30 28 29 29 32 26 24 30 34 35 35 37 35 33 34 37 36 35 35 31 29
42 43 43 43 43 44 44 44 45 45 46 47 47 48 47 49 46 37 41 45 45 35 32 26 21 25 31 27 26 31 30 31 30 28 28 27 29 28 23 30 32 34 34 34 34 35 37 35 32 30 28 27 26 28
42 43 43 43 43 43 43 44 44 45 46 47 46 46 42 39 32 35 46 46 40 36 29 26 21 19 30 29 29 29 31 25 29 26 28 29 23 21 29 31 32 32 31 33 32 29 27 28 30 26 26 23 26 29
42 43 43 44 44 44 43 44 44 45 45 46 40 33 31 33 42 43 34 31 31 31 31 24 21 21 29 29 25 26 26 23 20 24 29 25 22 31 33 31 31 31 32 29 24 23 20 23 25 27 24 27 28 28
42 43 43 43 43 44 44 44 44 44 45 36 31 30 34 40 33 32 27 27 27 24 27 21 21 22 28 24 23 28 24 25 19 21 22 20 20 24 14 17 18 18 19 24 27 30 29 29 28 27 24 24 23 21
42 42 39 39 40 41 41 43 44 40 34 35 34 35 33 30 26 23 22 23 24 22 20 21 21 24 24 28 26 26 23 23 18 22 21 16 21 8 5 5 6 7 6 9 11 14 17 19 16 17 15 15 12 10
38 38 40 38 42 43 43 43 44 41 39 34 31 29 27 25 18 17 14 15 16 17 19 20 20 24 23 26 25 23 19 18 21 18 17 20 7 4 -1 -1 -1 1 1 4 5 7 7 5 4 4 5 3 4 1
40 40 39 38 41 43 43 44 45 39 33 27 24 18 21 18 20 20 16 17 19 19 19 21 19 23 23 22 23 18 17 19 16 14 14 6 -0 -4 -4 -4 -7 -6 -6 -3 -2 0 -0 -1 -4 -4 -3 -1 -0 -2
39 39 39 37 38 39 45 45 43 34 29 23 23 16 17 8 4 0 1 13 13 22 23 20 21 24 19 20 21 16 13 13 15 14 7 1 -3 -6 -7 -8 -10 -9 -9 -7 -6 -5 -4 -5 -6 -8 -8 -5 -4 -4
37 35 34 38 36 36 38 42 33 29 17 17 10 13 8 13 8 7 10 14 15 21 21 22 16 15 14 17 12 12 12 9 11 1 -1 -1 -5 -7 -9 -10 -11 -11 -11 -10 -9 -7 -7 -8 -9 -10 -9 -8 -8 -5
32 24 36 38 35 32 30 27 24 16 13 11 4 0 0 7 5 3 5 13 17 19 16 16 11 13 19 14 9 5 8 0 -1 -2 -1 -4 -6 -7 -8 -9 -11 -12 -11 -11 -11 -10 -10 -11 -10 -6 -8 -9 -8 -8
19 25 34 35 29 26 16 13 17 12 4 5 6 0 1 1 3 4 8 12 15 15 14 13 20 10 8 7 2 -4 -5 -3 -1 -2 -4 -5 -6 -7 -7 -8 -9 -10 -10 -11 -10 -9 -8 -7 -7 -8 -9 -8 -7 -7
28 28 32 31 25 14 13 8 8 3 -1 2 5 5 3 3 4 3 4 7 8 5 6 6 -7 -10 -11 -10 -9 -8 -8 -8 -9 -6 -4 -6 -7 -8 -8 -9 -9 -10 -10 -9 -7 -9 -9 -10 -8 -6 -6 -5 -6 -7
30 30 29 25 22 12 7 3 8 5 0 -0 3 3 3 2 3 -0 -3 -1 -2 -6 -15 -16 -18 -17 -15 -13 -11 -10 -9 -7 -9 -7 -5 -5 -6 -9 -10 -10 -8 -9 -8 -7 -6 -5 -5 -5 -6 -6 -5 -5 -4 -6
20 20 20 10 4 3 -0 -0 -2 -1 0 -1 -2 2 0 0 -5 -6 -8 -5 -10 -15 -16 -15 -15 -13 -11 -11 -9 -11 -10 -10 -11 -11 -10 -8 -6 -8 -8 -8 -8 -7 -7 -6 -5 -5 -5 -7 -7 -7 -6 -7 -8 -8
10 20 5 9 2 -1 -0 2 -1 -1 -1 -4 -3 -5 -8 -8 -10 -12 -6 -14 -15 -15 -14 -15 -14 -13 -13 -12 -12 -11 -11 -11 -11 -9 -7 -8 -8 -9 -9 -10 -7 -9 -8 -8 -6 -6 -7 -7 -7 -7 -7 -7 -9 -8
11 10 2 -1 -3 -6 -7 1 -7 -6 -4 -5 -8 -10 -12 -11 -8 -6 -15 -14 -14 -10 -11 -13 -13 -12 -13 -10 -9 -11 -12 -11 -12 -12 -12 -11 -11 -10 -10 -11 -9 -9 -9 -9 -9 -8 -7 -8 -7 -8 -8 -8 -10 -9
5 -8 -12 -14 -12 -15 -6 -9 -5 -9 -6 -9 -10 -15 -15 -13 -9 -15 -21 -18 -14 -11 -13 -14 -12 -10 -9 -9 -11 -13 -14 -11 -10 -10 -11 -9 -10 -12 -11 -11 -11 -12 -13 -10 -9 -9 -8 -9 -11 -10 -10 -11 -11 -12
-12 -21 -18 -24 -15 -16 -14 -15 -13 -11 -13 -15 -16 -14 -14 -12 -20 -23 -22 -21 -17 -16 -15 -14 -13 -12 -14 -12 -10 -10 -12 -12 -11 -11 -12 -10 -9 -9 -9 -10 -12 -13 -12 -10 -11 -11 -11 -12 -12 -13 -12 -13 -13 -12
-28 -21 -23 -22 -20 -21 -18 -20 -20 -19 -15 -17 -18 -14 -12 -18 -23 -27 -23 -19 -18 -16 -15 -16 -16 -15 -13 -12 -13 -12 -11 -10 -10 -11 -12 -11 -11 -13 -14 -13 -12 -10 -10 -13 -14 -14 -14 -14 -17 -18 -16 -15 -16 -16
-27 -26 -20 -14 -18 -18 -19 -18 -18 -21 -25 -25 -24 -16 -17 -25 -26 -22 -17 -12 -14 -13 -11 -11 -13 -13 -13 -11 -9 -8 -7 -9 -11 -10 -10 -10 -10 -11 -11 -14 -15 -11 -7 -10 -11 -14 -16 -17 -17 -16 -16 -15 -16 -15
-22 -23 -26 -22 -23 -22 -25 -24 -26 -29 -26 -24 -21 -24 -25 -28 -27 -19 -14 -9 -10 -9 -9 -10 -9 -10 -11 -11 -10 -10 -10 -9 -9 -9 -9 -9 -10 -9 -11 -11 -11 -5 -12 -13 -13 -12 -14 -14 -13 -12 -13 -14 -14 -13
-22 -20 -20 -24 -23 -25 -28 -27 -26 -24 -23 -27 -24 -23 -22 -17 -17 -16 -12 -9 -9 -10 -13 -14 -14 -12 -13 -13 -13 -13 -13 -14 -18 -21 -21 -18 -16 -14 -13 -14 -16 -15 -15 -18 -12 -7 -7 -6 -8 -10 -18 -16 -14 -16
-23 -21 -23 -25 -27 -27 -24 -26 -24 -22 -23 -22 -18 -15 -16 -16 -13 -10 -11 -13 -14 -16 -16 -18 -20 -19 -21 -22 -22 -22 -24 -22 -26 -27 -29 -26 -25 -19 -18 -18 -17 -16 -15 -21 -17 -17 -13 -15 -16 -20 -19 -20 -19 -20
-21 -23 -23 -23 -24 -23 -22 -21 -22 -17 -12 -15 -14 -17 -19 -18 -15 -12 -13 -17 -19 -21 -22 -23 -24 -31 -31 -29 -32 -33 -30 -27 -28 -26 -28 -26 -23 -22 -21 -18 -16 -13 -18 -22 -22 -23 -21 -21 -23 -25 -25 -25 -24 -22
-23 -28 -23 -23 -24 -21 -20 -21 -21 -20 -19 -19 -20 -21 -20 -19 -23 -20 -16 -23 -27 -29 -27 -33 -35 -23 -27 -32 -33 -32 -25 -24 -28 -22 -26 -20 -20 -19 -16 -15 -14 -20 -23 -22 -23 -23 -23 -26 -26 -25 -24 -26 -26 -25
-24 -22 -22 -22 -22 -21 -22 -22 -19 -20 -19 -22 -21 -22 -22 -22 -25 -21 -16 -24 -26 -29 -30 -30 -30 -27 -28 -28 -28 -26 -24 -29 -30 -15 -15 -12 -12 -11 -12 -13 -18 -25 -25 -23 -23 -23 -25 -26 -26 -26 -27 -27 -28 -27

GFSWCAN_sfc_temp_033.txt.gz
Temp
47 47 47 47 47 47 48 48 48 49 50 50 49 50 50 49 50 48 45 46 43 36 37 36 37 34 34 34 32 32 32 32 32 31 32 30 30 30 31 34 33 33 29 29 32 30 28 38 37 38 39 37 37 40
46 46 46 47 47 47 48 48 48 48 49 50 49 50 50 51 49 49 43 45 45 39 36 38 39 39 37 37 35 32 32 33 35 33 32 31 28 28 30 28 31 29 35 33 34 33 33 37 34 37 38 37 38 39
45 45 45 46 46 46 46 47 47 47 48 49 49 49 50 50 50 47 45 44 43 35 34 35 35 38 39 39 41 35 34 36 33 34 33 31 28 30 27 29 29 29 29 31 31 27 29 30 32 36 38 39 40 40
44 44 44 45 45 46 46 46 47 47 47 49 48 48 49 50 50 47 42 45 43 38 32 33 39 37 41 40 39 39 37 35 35 34 33 32 30 29 29 30 30 32 29 28 25 29 33 31 33 37 38 38 38 39
44 44 44 44 45 45 46 47 47 46 47 48 48 48 48 50 50 46 43 42 46 40 33 32 33 36 39 41 39 39 36 34 33 32 31 30 29 30 29 30 30 34 32 30 27 35 34 35 40 40 37 37 38 36
44 44 43 44 45 45 45 46 46 46 46 47 48 48 48 49 49 42 33 40 43 44 34 29 34 31 36 39 38 37 35 34 34 32 29 28 33 31 28 28 33 37 37 40 36 39 40 40 41 40 38 37 37 35
43 43 43 44 44 44 44 44 45 45 45 46 47 47 48 48 44 36 35 43 46 46 33 27 27 31 34 35 34 34 36 35 35 31 30 31 31 33 29 26 35 36 37 37 36 36 36 37 38 38 36 37 33 31
43 42 43 43 43 43 44 44 45 44 44 46 46 47 47 47 46 38 44 46 46 35 33 29 24 27 32 30 29 34 33 34 33 31 31 30 30 31 25 33 35 36 36 35 36 37 37 37 35 31 30 29 26 28
41 41 42 43 44 43 43 43 44 45 44 45 46 46 43 38 32 36 46 47 42 37 31 29 23 22 32 31 32 31 34 28 31 29 31 32 26 24 30 33 33 34 33 33 32 29 28 29 30 28 28 25 26 28
41 42 43 43 44 44 44 45 44 44 44 45 42 33 31 33 42 44 38 33 32 32 32 29 31 24 32 31 28 28 31 26 22 27 31 26 26 29 21 20 21 21 21 28 27 27 25 25 27 27 27 28 28 27
41 42 42 43 43 44 43 43 44 44 44 36 32 31 35 42 35 32 29 29 29 26 29 27 29 24 31 27 26 31 26 27 21 24 24 23 22 19 14 14 15 15 15 17 17 21 24 25 27 27 25 24 23 21
41 41 42 43 43 42 42 43 42 41 34 36 36 35 33 32 29 26 25 26 26 24 23 25 27 30 28 34 29 28 25 26 20 25 23 19 20 9 6 6 7 7 5 7 10 12 14 14 12 16 16 15 12 11
40 39 38 39 40 40 41 43 43 44 39 35 33 30 29 27 20 20 17 19 20 24 24 25 24 26 27 31 28 27 22 21 25 21 20 23 10 6 1 1 0 2 2 4 5 7 7 5 4 4 6 5 7 4
36 38 40 39 39 40 44 44 44 42 33 30 26 21 23 20 23 24 25 25 26 28 25 29 24 27 27 26 26 21 20 22 18 16 18 12 2 -2 -2 -2 -5 -5 -4 -2 -1 1 1 1 -1 -2 -1 2 2 1
38 38 39 39 38 38 43 44 43 37 30 26 26 19 20 14 11 11 13 21 21 29 27 25 25 28 24 22 22 19 15 15 19 18 10 5 -1 -3 -4 -5 -7 -7 -7 -5 -3 -3 -3 -3 -4 -5 -5 -2 -1 -2
37 35 34 38 37 37 43 38 33 28 17 18 13 16 14 17 13 16 19 19 22 29 29 29 23 21 19 21 18 17 17 15 13 4 2 2 -3 -5 -6 -7 -8 -8 -8 -6 -6 -5 -5 -7 -7 -6 -6 -5 -4 -3
32 27 35 36 35 31 32 29 23 15 13 13 6 6 7 11 9 10 14 16 21 26 22 24 19 17 23 16 11 5 7 2 2 -0 -1 -3 -5 -6 -6 -6 -8 -8 -7 -6 -6 -6 -6 -6 -4 -4 -6 -6 -4 -5
25 29 33 34 29 26 16 17 17 13 6 7 7 4 6 4 8 7 9 11 18 21 23 18 22 14 8 11 3 -3 -2 -0 -0 -1 -3 -3 -4 -5 -4 -5 -5 -6 -6 -7 -6 -5 -4 -4 -3 -4 -5 -4 -3 -3
29 29 31 30 27 20 15 9 12 5 3 6 8 8 7 4 3 2 3 6 5 4 6 3 -8 -9 -10 -9 -8 -7 -6 -6 -6 -3 -3 -5 -6 -8 -6 -6 -6 -6 -7 -5 -4 -5 -5 -6 -3 -2 -1 0 -2 -2
30 29 28 25 25 17 9 5 12 9 4 3 6 5 4 2 3 0 -3 -1 -1 -5 -15 -15 -16 -15 -13 -11 -9 -9 -7 -6 -6 -4 -2 -3 -3 -5 -8 -6 -5 -5 -4 -3 -3 -2 -2 -3 -2 -2 -2 -1 -0 -2
22 22 21 17 11 8 4 4 2 3 5 1 1 5 1 1 -4 -6 -7 -4 -10 -14 -15 -13 -13 -11 -10 -9 -7 -8 -7 -8 -8 -8 -7 -5 -4 -4 -4 -3 -3 -3 -3 -2 -2 -3 -4 -5 -5 -3 -2 -3 -3 -3
15 20 11 13 9 7 5 5 3 3 3 0 0 -1 -4 -5 -7 -10 -5 -12 -14 -14 -13 -13 -13 -12 -11 -11 -10 -9 -10 -8 -7 -5 -5 -5 -6 -6 -7 -6 -4 -6 -6 -6 -5 -5 -5 -5 -4 -4 -3 -4 -4 -3
13 13 6 2 2 1 -2 7 2 1 1 -2 -1 -5 -7 -7 -7 -3 -14 -13 -13 -10 -10 -11 -11 -9 -10 -8 -8 -9 -9 -7 -8 -8 -7 -7 -7 -6 -6 -7 -7 -6 -6 -7 -6 -6 -6 -6 -4 -5 -4 -4 -5 -4
6 -6 -10 -10 -9 -11 -1 -5 -1 -2 -2 -4 -6 -10 -11 -10 -6 -13 -19 -16 -13 -10 -11 -12 -8 -7 -7 -7 -10 -10 -10 -6 -6 -7 -7 -5 -7 -9 -7 -8 -9 -9 -10 -7 -7 -7 -7 -8 -8 -7 -7 -8 -7 -7
-12 -20 -14 -22 -12 -13 -13 -12 -13 -8 -11 -10 -10 -11 -12 -9 -17 -19 -19 -17 -14 -14 -13 -11 -10 -10 -11 -10 -9 -8 -8 -8 -8 -10 -9 -5 -6 -6 -7 -8 -9 -10 -9 -10 -11 -11 -10 -9 -10 -10 -10 -9 -10 -10
-26 -19 -20 -21 -19 -18 -17 -18 -19 -18 -14 -16 -15 -10 -11 -16 -22 -24 -20 -16 -15 -14 -14 -13 -13 -12 -12 -10 -11 -10 -9 -8 -6 -10 -10 -7 -8 -9 -10 -11 -11 -10 -7 -9 -11 -13 -13 -12 -13 -14 -12 -10 -11 -15
-26 -24 -17 -13 -17 -17 -18 -17 -17 -20 -25 -25 -21 -15 -16 -25 -26 -20 -14 -11 -12 -11 -9 -10 -10 -11 -12 -11 -9 -8 -7 -7 -8 -8 -8 -7 -8 -9 -11 -14 -16 -13 -9 -11 -12 -13 -15 -16 -15 -14 -13 -12 -12 -13
-19 -20 -25 -19 -21 -20 -23 -23 -25 -27 -25 -23 -19 -24 -26 -25 -24 -16 -12 -8 -8 -8 -9 -10 -10 -10 -12 -12 -12 -11 -10 -11 -7 -8 -8 -8 -9 -10 -13 -12 -12 -6 -12 -12 -12 -9 -10 -12 -13 -11 -12 -14 -14 -13
-19 -18 -17 -24 -21 -22 -25 -24 -24 -22 -21 -23 -20 -22 -22 -17 -14 -13 -10 -9 -8 -10 -14 -15 -15 -14 -14 -14 -15 -15 -15 -16 -19 -24 -25 -20 -18 -15 -14 -15 -15 -14 -13 -14 -11 -8 -8 -8 -8 -11 -13 -16 -15 -16
-21 -18 -22 -23 -26 -25 -21 -21 -20 -18 -19 -18 -14 -15 -16 -16 -13 -10 -11 -12 -14 -16 -17 -18 -19 -21 -24 -23 -22 -21 -21 -22 -22 -23 -25 -24 -22 -18 -19 -18 -17 -16 -15 -16 -16 -16 -12 -14 -14 -18 -18 -19 -19 -19
-18 -15 -20 -20 -22 -20 -18 -17 -13 -13 -13 -15 -14 -18 -19 -17 -14 -12 -13 -16 -18 -22 -23 -23 -24 -26 -26 -25 -28 -28 -24 -23 -28 -26 -26 -24 -23 -22 -21 -18 -16 -15 -15 -20 -20 -20 -19 -21 -21 -21 -22 -23 -23 -23
-20 -27 -23 -22 -21 -17 -16 -17 -16 -15 -16 -17 -17 -17 -17 -18 -22 -19 -15 -21 -24 -25 -24 -28 -30 -23 -23 -24 -25 -25 -23 -23 -24 -20 -24 -20 -19 -19 -16 -15 -14 -16 -20 -19 -20 -20 -21 -23 -24 -24 -24 -25 -25 -25
-23 -22 -24 -25 -24 -23 -23 -23 -20 -21 -18 -22 -21 -21 -24 -23 -26 -20 -15 -20 -21 -22 -23 -22 -22 -22 -23 -25 -24 -22 -22 -23 -26 -14 -14 -13 -13 -11 -11 -12 -15 -19 -22 -21 -22 -23 -24 -25 -26 -26 -26 -27 -27 -27

GFSWCAN_sfc_temp_036.txt.gz
Temp
47 48 48 48 48 48 48 48 48 48 48 49 50 51 50 50 50 46 42 47 42 34 37 37 38 34 33 34 32 32 33 31 31 31 31 31 30 31 30 31 28 32 31 32 33 31 29 34 33 36 34 32 32 34
46 46 47 47 47 47 47 47 48 48 48 48 49 50 50 50 50 48 40 45 45 37 35 39 40 40 39 37 34 32 33 32 34 32 31 31 28 28 29 27 30 29 32 33 32 31 30 31 32 35 35 33 37 37
45 45 46 46 46 47 47 47 47 47 48 48 48 49 50 50 50 48 42 41 40 33 34 32 33 37 39 39 40 33 33 35 33 34 32 31 28 30 27 28 27 28 30 30 30 27 28 31 34 34 35 36 37 37
44 44 45 45 45 45 46 46 46 46 47 47 47 48 49 49 49 48 40 42 41 34 27 27 37 35 39 39 38 38 37 35 34 34 32 31 29 30 29 29 29 29 30 27 24 27 28 31 32 33 36 35 36 35
44 44 44 45 45 45 45 46 46 47 47 47 47 47 48 48 49 46 43 43 45 37 27 27 29 34 38 37 37 38 36 33 32 31 31 29 29 28 28 29 26 30 28 28 26 30 31 32 35 35 34 34 34 33
43 44 44 44 45 45 45 45 45 46 46 47 46 47 48 48 48 41 33 40 43 42 31 20 31 30 31 36 35 34 34 33 33 32 28 28 31 29 27 25 31 34 35 37 33 35 34 36 36 35 34 34 34 32
43 43 44 44 44 44 44 44 44 45 45 46 46 47 48 48 43 35 33 38 45 41 32 24 24 30 30 30 29 31 34 31 32 29 28 28 28 30 25 21 33 33 35 35 36 35 33 34 34 35 34 34 31 29
43 43 44 44 43 43 43 44 44 44 44 44 45 46 47 48 45 39 41 45 44 35 32 28 22 26 31 27 22 30 28 28 28 28 27 27 28 28 21 30 33 32 33 33 33 32 33 33 31 28 27 26 24 25
42 42 43 42 42 43 43 43 43 44 44 45 45 45 42 39 33 34 45 46 42 36 29 25 18 20 29 29 26 24 29 20 26 21 26 26 21 18 22 28 24 20 24 24 27 26 26 26 25 24 23 21 23 24
41 41 41 42 42 43 44 44 43 43 44 44 39 32 30 33 43 44 38 33 32 32 32 24 22 20 30 28 22 21 23 17 11 20 27 17 16 20 18 16 16 16 16 18 22 22 21 21 22 23 22 22 22 22
41 41 42 42 43 43 44 44 45 43 43 34 31 31 35 41 37 32 29 28 29 26 29 20 21 22 28 18 18 26 19 17 11 15 14 8 9 15 13 12 13 12 12 12 13 16 16 16 17 19 19 16 14 14
41 41 41 42 43 43 44 44 44 38 33 34 34 35 33 31 30 27 25 27 26 22 21 19 19 22 21 27 19 20 16 20 9 15 12 8 12 6 4 4 5 4 3 4 6 8 9 9 7 9 8 7 6 6
40 40 41 40 40 41 42 43 44 43 41 33 31 28 27 26 21 20 18 20 18 23 22 22 21 23 23 27 22 24 16 13 22 11 8 6 7 1 -2 -2 -2 -2 -1 1 1 3 3 1 0 -1 0 1 1 -0
36 36 37 39 40 41 41 42 43 42 33 26 25 20 21 19 21 19 13 21 22 23 24 26 23 23 23 20 22 17 20 17 12 5 7 -0 -5 -9 -6 -6 -9 -8 -7 -5 -4 -3 -3 -2 -4 -5 -5 -3 -4 -5
39 38 38 36 39 39 39 41 44 36 30 24 23 14 19 12 11 7 10 11 18 27 28 23 22 25 20 21 22 18 14 12 11 7 -2 -4 -7 -6 -7 -8 -11 -11 -10 -9 -8 -9 -7 -7 -8 -9 -9 -8 -7 -6
37 35 30 36 37 38 41 41 32 25 15 15 6 9 8 12 8 10 17 20 24 29 25 25 22 21 19 19 17 15 12 6 0 -7 -3 -2 -6 -8 -9 -11 -12 -14 -14 -12 -13 -12 -10 -11 -12 -14 -12 -9 -9 -8
32 22 34 35 35 31 32 26 21 14 12 10 5 1 3 5 4 4 10 10 16 27 21 23 19 17 22 15 5 -5 -8 -6 -3 -4 -4 -6 -8 -10 -9 -11 -12 -14 -15 -16 -16 -15 -14 -14 -10 -7 -9 -11 -11 -10
20 25 33 34 30 26 17 17 15 11 5 6 4 3 -1 -2 3 2 3 6 8 21 20 13 15 2 -3 2 -5 -5 -4 -4 -3 -5 -7 -7 -8 -9 -8 -9 -11 -15 -16 -15 -15 -14 -10 -9 -7 -9 -13 -13 -12 -12
26 27 30 31 27 18 13 10 12 2 2 4 8 8 4 -0 0 -1 -1 2 3 0 1 -3 -12 -13 -14 -13 -12 -11 -9 -9 -9 -5 -6 -7 -9 -9 -10 -11 -9 -11 -12 -14 -11 -10 -11 -10 -9 -9 -10 -8 -11 -11
29 29 29 27 26 16 7 5 12 6 -1 2 5 2 1 -2 -2 -2 -6 -4 -4 -9 -17 -17 -19 -17 -15 -13 -11 -11 -8 -8 -8 -6 -6 -6 -5 -9 -10 -11 -9 -10 -10 -12 -7 -5 -7 -7 -6 -6 -9 -9 -12 -13
19 19 21 16 12 9 4 5 1 4 4 0 2 4 -0 -1 -8 -9 -9 -7 -13 -16 -17 -16 -16 -14 -12 -12 -11 -11 -9 -9 -10 -10 -12 -9 -6 -8 -9 -7 -8 -7 -6 -5 -6 -7 -8 -10 -10 -10 -15 -17 -16 -14
11 20 6 12 10 8 4 5 4 5 2 1 0 -1 -5 -9 -11 -12 -7 -14 -16 -16 -15 -14 -14 -15 -13 -14 -13 -13 -12 -10 -10 -7 -5 -6 -10 -9 -10 -8 -7 -10 -10 -10 -9 -9 -10 -11 -13 -15 -17 -17 -14 -14
12 10 3 -1 -1 -0 -3 6 2 1 -1 -2 -1 -6 -8 -11 -9 -5 -15 -14 -14 -11 -11 -13 -12 -11 -11 -10 -10 -10 -10 -9 -10 -10 -8 -8 -7 -7 -9 -10 -10 -11 -12 -11 -9 -11 -12 -7 -11 -14 -15 -15 -16 -16
4 -8 -12 -15 -13 -15 -3 -5 -1 -2 -2 -5 -7 -12 -13 -11 -7 -14 -20 -18 -14 -11 -13 -12 -10 -11 -10 -10 -11 -12 -12 -8 -9 -10 -8 -7 -10 -11 -10 -11 -11 -11 -13 -13 -13 -14 -14 -16 -13 -15 -16 -20 -20 -19
-17 -23 -20 -27 -18 -17 -14 -13 -13 -8 -12 -9 -11 -13 -13 -10 -17 -19 -20 -18 -15 -15 -14 -12 -10 -11 -13 -12 -10 -10 -9 -10 -10 -13 -10 -8 -9 -9 -10 -10 -11 -10 -10 -13 -14 -15 -18 -21 -23 -22 -21 -23 -23 -23
-28 -21 -26 -25 -24 -24 -20 -21 -20 -19 -16 -16 -15 -11 -13 -17 -22 -25 -21 -18 -16 -15 -15 -15 -14 -14 -14 -13 -16 -14 -12 -10 -11 -13 -12 -11 -12 -14 -15 -15 -15 -13 -11 -14 -16 -19 -20 -20 -23 -22 -22 -21 -17 -19
-29 -25 -17 -15 -20 -20 -21 -20 -20 -23 -26 -25 -22 -17 -19 -25 -27 -22 -15 -12 -14 -14 -11 -12 -14 -16 -19 -20 -19 -19 -18 -16 -20 -19 -18 -19 -18 -20 -20 -23 -24 -21 -18 -23 -24 -24 -23 -23 -21 -21 -20 -20 -24 -25
-20 -20 -25 -20 -23 -23 -30 -29 -29 -30 -28 -24 -23 -27 -28 -27 -26 -18 -14 -10 -11 -11 -15 -20 -22 -24 -27 -27 -28 -25 -27 -21 -23 -20 -19 -17 -20 -25 -26 -26 -24 -8 -19 -22 -21 -18 -21 -20 -19 -15 -16 -18 -18 -22
-19 -18 -19 -24 -23 -22 -26 -26 -27 -24 -22 -26 -29 -28 -26 -20 -20 -18 -14 -12 -17 -22 -27 -28 -26 -26 -27 -28 -30 -32 -31 -27 -28 -31 -33 -32 -30 -25 -24 -27 -27 -24 -25 -28 -15 -10 -12 -11 -12 -15 -21 -21 -19 -22
-22 -18 -23 -24 -27 -27 -22 -22 -22 -17 -20 -21 -18 -18 -19 -20 -18 -13 -17 -21 -25 -29 -31 -33 -35 -37 -35 -37 -33 -30 -35 -35 -32 -30 -34 -34 -31 -28 -26 -26 -26 -25 -24 -29 -20 -22 -16 -17 -19 -26 -25 -25 -24 -23
-20 -21 -25 -23 -24 -22 -20 -18 -16 -16 -20 -22 -24 -25 -30 -24 -23 -22 -25 -30 -34 -36 -35 -35 -36 -39 -36 -35 -38 -38 -32 -34 -35 -34 -33 -32 -30 -29 -28 -25 -23 -25 -25 -25 -26 -27 -23 -23 -24 -27 -27 -28 -28 -26
-27 -32 -27 -26 -26 -22 -23 -27 -27 -26 -28 -31 -28 -32 -31 -33 -34 -31 -25 -32 -35 -34 -31 -36 -39 -32 -33 -34 -35 -33 -25 -26 -29 -26 -29 -25 -25 -25 -22 -21 -19 -18 -23 -24 -25 -24 -25 -28 -27 -27 -27 -28 -28 -28
-33 -33 -35 -34 -32 -33 -33 -31 -31 -32 -33 -36 -33 -35 -36 -32 -29 -25 -23 -29 -27 -29 -30 -31 -31 -31 -30 -30 -29 -30 -25 -29 -29 -16 -13 -13 -14 -13 -13 -18 -19 -22 -24 -26 -26 -25 -27 -28 -28 -28 -29 -29 -29 -29